Time,TemperatureF,DewpointF,PressureIn,WindDirection,WindDirectionDegrees,WindSpeedMPH,WindSpeedGustMPH,Humidity,HourlyPrecipIn,Conditions,Clouds,dailyrainin,SoftwareType,DateUTC
2013-07-13 00:05:00,78.0,45.8,29.18,SSE,158,0.0,0.0,32,0.00,,---,0.00,VWS V14.00,2013-07-13 05:05:00,
2013-07-13 00:08:00,78.0,46.6,29.18,SSE,158,0.0,0.0,33,0.00,,---,0.00,VWS V14.00,2013-07-13 05:08:00,
2013-07-13 00:11:00,78.0,46.6,29.21,SSE,158,0.0,0.0,33,0.00,,---,0.00,VWS V14.00,2013-07-13 05:11:00,
2013-07-13 00:14:00,77.8,46.4,29.21,SSE,158,0.0,0.0,33,0.00,,---,0.00,VWS V14.00,2013-07-13 05:14:00,
2013-07-13 00:15:00,77.8,46.4,29.21,SSE,158,0.0,0.0,33,0.00,,---,0.00,VWS V14.00,2013-07-13 05:15:00,
2013-07-13 00:17:00,77.8,46.4,29.21,SSE,157,0.0,0.0,33,0.00,,---,0.00,VWS V14.00,2013-07-13 05:17:00,
2013-07-13 00:23:00,77.6,46.2,29.21,SSE,158,0.0,0.0,33,0.00,,---,0.00,VWS V14.00,2013-07-13 05:23:00,
2013-07-13 00:26:00,77.4,46.9,29.21,SSE,158,0.0,0.0,34,0.00,,---,0.00,VWS V14.00,2013-07-13 05:26:00,
2013-07-13 00:29:00,77.4,46.9,29.21,SSE,158,0.0,0.0,34,0.00,,---,0.00,VWS V14.00,2013-07-13 05:29:00,
2013-07-13 00:32:00,77.4,46.9,29.21,SSE,158,0.0,0.0,34,0.00,,---,0.00,VWS V14.00,2013-07-13 05:32:00,
2013-07-13 00:35:00,77.2,46.7,29.21,SSE,158,0.0,0.0,34,0.00,,---,0.00,VWS V14.00,2013-07-13 05:35:00,
2013-07-13 00:41:00,77.1,47.3,29.21,SSE,159,0.0,0.0,35,0.00,,---,0.00,VWS V14.00,2013-07-13 05:41:00,
2013-07-13 00:44:00,77.1,47.3,29.21,SSE,160,0.0,0.0,35,0.00,,---,0.00,VWS V14.00,2013-07-13 05:44:00,
2013-07-13 00:47:00,76.9,47.2,29.21,SSE,160,0.0,0.0,35,0.00,,---,0.00,VWS V14.00,2013-07-13 05:47:00,
2013-07-13 00:53:00,76.7,47.8,29.21,ESE,121,0.0,0.0,36,0.00,,---,0.00,VWS V14.00,2013-07-13 05:53:00,
2013-07-13 00:56:00,76.5,47.6,29.21,ESE,121,0.0,0.0,36,0.00,,---,0.00,VWS V14.00,2013-07-13 05:56:00,
2013-07-13 01:02:00,76.5,47.6,29.21,ESE,121,0.0,0.0,36,0.00,,---,0.00,VWS V14.00,2013-07-13 06:02:00,
2013-07-13 01:05:00,76.3,47.5,29.21,ESE,121,0.0,0.0,36,0.00,,---,0.00,VWS V14.00,2013-07-13 06:05:00,
2013-07-13 01:08:00,76.2,48.0,29.21,ESE,121,0.0,0.0,37,0.00,,---,0.00,VWS V14.00,2013-07-13 06:08:00,
2013-07-13 01:11:00,76.2,48.0,29.21,ESE,121,0.0,0.0,37,0.00,,---,0.00,VWS V14.00,2013-07-13 06:11:00,
2013-07-13 01:14:00,76.0,47.9,29.21,ESE,121,0.0,0.0,37,0.00,,---,0.00,VWS V14.00,2013-07-13 06:14:00,
2013-07-13 01:17:00,76.0,47.9,29.21,ESE,121,0.0,0.0,37,0.00,,---,0.00,VWS V14.00,2013-07-13 06:17:00,
2013-07-13 01:20:00,76.0,47.9,29.21,ESE,121,0.0,0.0,37,0.00,,---,0.00,VWS V14.00,2013-07-13 06:20:00,
2013-07-13 01:23:00,75.8,47.7,29.21,ESE,121,0.0,0.0,37,0.00,,---,0.00,VWS V14.00,2013-07-13 06:23:00,
2013-07-13 01:26:00,75.8,48.4,29.21,ESE,121,0.0,0.0,38,0.00,,---,0.00,VWS V14.00,2013-07-13 06:26:00,
2013-07-13 01:29:00,75.6,48.2,29.21,ESE,121,0.0,0.0,38,0.00,,---,0.00,VWS V14.00,2013-07-13 06:29:00,
2013-07-13 01:30:00,75.4,48.1,29.21,ESE,121,0.0,0.0,38,0.00,,---,0.00,VWS V14.00,2013-07-13 06:30:00,
2013-07-13 01:32:00,75.4,48.1,29.21,ESE,121,0.0,0.0,38,0.00,,---,0.00,VWS V14.00,2013-07-13 06:32:00,
2013-07-13 01:35:00,75.3,48.6,29.21,ESE,121,0.0,0.0,39,0.00,,---,0.00,VWS V14.00,2013-07-13 06:35:00,
2013-07-13 01:38:00,75.3,48.6,29.21,ESE,121,0.0,0.0,39,0.00,,---,0.00,VWS V14.00,2013-07-13 06:38:00,
2013-07-13 01:41:00,75.3,48.6,29.21,ESE,121,0.0,0.0,39,0.00,,---,0.00,VWS V14.00,2013-07-13 06:41:00,
2013-07-13 01:44:00,75.3,48.6,29.21,ESE,121,0.0,0.0,39,0.00,,---,0.00,VWS V14.00,2013-07-13 06:44:00,
2013-07-13 01:45:00,75.3,48.6,29.21,ESE,121,0.0,0.0,39,0.00,,---,0.00,VWS V14.00,2013-07-13 06:45:00,
2013-07-13 01:47:00,75.1,48.5,29.21,ESE,121,0.0,0.0,39,0.00,,---,0.00,VWS V14.00,2013-07-13 06:47:00,
2013-07-13 01:50:00,75.1,48.5,29.21,South,182,0.0,3.1,39,0.00,,---,0.00,VWS V14.00,2013-07-13 06:50:00,
2013-07-13 01:53:00,75.1,49.1,29.21,SSE,166,0.0,3.1,40,0.00,,---,0.00,VWS V14.00,2013-07-13 06:53:00,
2013-07-13 01:56:00,74.9,49.0,29.18,SSE,166,0.0,3.1,40,0.00,,---,0.00,VWS V14.00,2013-07-13 06:56:00,
2013-07-13 01:59:00,74.9,49.0,29.18,SSE,166,0.0,3.1,40,0.00,,---,0.00,VWS V14.00,2013-07-13 06:59:00,
2013-07-13 02:00:00,74.9,49.0,29.18,SSE,166,0.0,3.1,40,0.00,,---,0.00,VWS V14.00,2013-07-13 07:00:00,
2013-07-13 02:02:00,74.9,49.0,29.18,SSE,166,0.0,0.0,40,0.00,,---,0.00,VWS V14.00,2013-07-13 07:02:00,
2013-07-13 02:05:00,74.9,49.0,29.18,SSE,166,0.0,0.0,40,0.00,,---,0.00,VWS V14.00,2013-07-13 07:05:00,
2013-07-13 02:08:00,74.7,48.8,29.21,SSE,167,0.0,0.0,40,0.00,,---,0.00,VWS V14.00,2013-07-13 07:08:00,
2013-07-13 02:11:00,74.7,48.8,29.21,SSE,167,0.0,0.0,40,0.00,,---,0.00,VWS V14.00,2013-07-13 07:11:00,
2013-07-13 02:15:00,74.5,48.7,29.21,East,99,0.0,0.0,40,0.00,,---,0.00,VWS V14.00,2013-07-13 07:15:00,
2013-07-13 02:17:00,74.5,48.7,29.21,East,99,0.0,0.0,40,0.00,,---,0.00,VWS V14.00,2013-07-13 07:17:00,
2013-07-13 02:23:00,74.5,48.7,29.21,ESE,116,0.0,0.0,40,0.00,,---,0.00,VWS V14.00,2013-07-13 07:23:00,
2013-07-13 02:29:00,74.4,49.2,29.21,ESE,116,0.0,0.0,41,0.00,,---,0.00,VWS V14.00,2013-07-13 07:29:00,
2013-07-13 02:32:00,74.2,49.0,29.21,ESE,116,0.0,0.0,41,0.00,,---,0.00,VWS V14.00,2013-07-13 07:32:00,
2013-07-13 02:35:00,74.2,49.0,29.21,ESE,116,0.0,0.0,41,0.00,,---,0.00,VWS V14.00,2013-07-13 07:35:00,
2013-07-13 02:38:00,74.0,48.8,29.21,ESE,116,0.0,0.0,41,0.00,,---,0.00,VWS V14.00,2013-07-13 07:38:00,
2013-07-13 02:44:00,73.8,48.7,29.21,ESE,116,0.0,0.0,41,0.00,,---,0.00,VWS V14.00,2013-07-13 07:44:00,
2013-07-13 02:45:00,73.8,48.7,29.21,ESE,116,0.0,0.0,41,0.00,,---,0.00,VWS V14.00,2013-07-13 07:45:00,
2013-07-13 02:47:00,73.8,48.7,29.21,ESE,116,0.0,0.0,41,0.00,,---,0.00,VWS V14.00,2013-07-13 07:47:00,
2013-07-13 02:53:00,73.6,49.2,29.21,ESE,116,0.0,0.0,42,0.00,,---,0.00,VWS V14.00,2013-07-13 07:53:00,
2013-07-13 02:56:00,73.6,49.2,29.21,ESE,116,0.0,0.0,42,0.00,,---,0.00,VWS V14.00,2013-07-13 07:56:00,
2013-07-13 02:59:00,73.5,49.0,29.21,ESE,116,0.0,0.0,42,0.00,,---,0.00,VWS V14.00,2013-07-13 07:59:00,
2013-07-13 03:00:00,73.5,49.0,29.21,ESE,116,0.0,0.0,42,0.00,,---,0.00,VWS V14.00,2013-07-13 08:00:00,
2013-07-13 03:02:00,73.5,49.0,29.21,ESE,116,0.0,0.0,42,0.00,,---,0.00,VWS V14.00,2013-07-13 08:02:00,
2013-07-13 03:08:00,73.3,48.8,29.18,ESE,116,0.0,0.0,42,0.00,,---,0.00,VWS V14.00,2013-07-13 08:08:00,
2013-07-13 03:11:00,73.3,48.8,29.18,ESE,116,0.0,0.0,42,0.00,,---,0.00,VWS V14.00,2013-07-13 08:11:00,
2013-07-13 03:14:00,73.3,48.8,29.18,ESE,116,0.0,0.0,42,0.00,,---,0.00,VWS V14.00,2013-07-13 08:14:00,
2013-07-13 03:15:00,73.1,48.7,29.18,ESE,116,0.0,0.0,42,0.00,,---,0.00,VWS V14.00,2013-07-13 08:15:00,
2013-07-13 03:20:00,73.1,48.7,29.18,ESE,116,0.0,0.0,42,0.00,,---,0.00,VWS V14.00,2013-07-13 08:20:00,
2013-07-13 03:23:00,73.1,48.7,29.18,ESE,116,0.0,0.0,42,0.00,,---,0.00,VWS V14.00,2013-07-13 08:23:00,
2013-07-13 03:26:00,73.1,48.7,29.21,ESE,116,0.0,0.0,42,0.00,,---,0.00,VWS V14.00,2013-07-13 08:26:00,
2013-07-13 03:29:00,72.9,48.5,29.21,ESE,116,0.0,0.0,42,0.00,,---,0.00,VWS V14.00,2013-07-13 08:29:00,
2013-07-13 03:30:00,72.9,48.5,29.21,ESE,116,0.0,0.0,42,0.00,,---,0.00,VWS V14.00,2013-07-13 08:30:00,
2013-07-13 03:32:00,72.9,48.5,29.21,ESE,116,0.0,0.0,42,0.00,,---,0.00,VWS V14.00,2013-07-13 08:32:00,
2013-07-13 03:38:00,72.7,49.0,29.21,ESE,116,0.0,0.0,43,0.00,,---,0.00,VWS V14.00,2013-07-13 08:38:00,
2013-07-13 03:44:00,72.7,49.0,29.21,ESE,116,0.0,0.0,43,0.00,,---,0.00,VWS V14.00,2013-07-13 08:44:00,
2013-07-13 03:45:00,72.7,49.0,29.21,ESE,116,0.0,0.0,43,0.00,,---,0.00,VWS V14.00,2013-07-13 08:45:00,
2013-07-13 03:47:00,72.7,49.0,29.21,ESE,116,0.0,0.0,43,0.00,,---,0.00,VWS V14.00,2013-07-13 08:47:00,
2013-07-13 03:50:00,72.7,49.0,29.21,ESE,116,0.0,0.0,43,0.00,,---,0.00,VWS V14.00,2013-07-13 08:50:00,
2013-07-13 03:53:00,72.6,48.8,29.21,ESE,116,0.0,0.0,43,0.00,,---,0.00,VWS V14.00,2013-07-13 08:53:00,
2013-07-13 03:56:00,72.6,48.8,29.21,ESE,116,0.0,0.0,43,0.00,,---,0.00,VWS V14.00,2013-07-13 08:56:00,
2013-07-13 04:00:00,72.6,48.8,29.21,ESE,116,0.0,0.0,43,0.00,,---,0.00,VWS V14.00,2013-07-13 09:00:00,
2013-07-13 04:02:00,72.4,48.7,29.21,ESE,116,0.0,0.0,43,0.00,,---,0.00,VWS V14.00,2013-07-13 09:02:00,
2013-07-13 04:05:00,72.4,48.7,29.21,ESE,116,0.0,0.0,43,0.00,,---,0.00,VWS V14.00,2013-07-13 09:05:00,
2013-07-13 04:11:00,72.4,48.7,29.21,ESE,116,0.0,0.0,43,0.00,,---,0.00,VWS V14.00,2013-07-13 09:11:00,
2013-07-13 04:14:00,72.2,48.5,29.21,ESE,116,0.0,0.0,43,0.00,,---,0.00,VWS V14.00,2013-07-13 09:14:00,
2013-07-13 04:15:00,72.2,48.5,29.21,ESE,116,0.0,0.0,43,0.00,,---,0.00,VWS V14.00,2013-07-13 09:15:00,
2013-07-13 04:20:00,72.0,48.9,29.21,ESE,116,0.0,0.0,44,0.00,,---,0.00,VWS V14.00,2013-07-13 09:20:00,
2013-07-13 04:26:00,71.8,48.8,29.21,ESE,116,0.0,0.0,44,0.00,,---,0.00,VWS V14.00,2013-07-13 09:26:00,
2013-07-13 04:30:00,71.8,48.8,29.21,ESE,116,0.0,0.0,44,0.00,,---,0.00,VWS V14.00,2013-07-13 09:30:00,
2013-07-13 04:32:00,71.8,48.8,29.21,ESE,116,0.0,0.0,44,0.00,,---,0.00,VWS V14.00,2013-07-13 09:32:00,
2013-07-13 04:35:00,71.7,48.6,29.21,ESE,116,0.0,0.0,44,0.00,,---,0.00,VWS V14.00,2013-07-13 09:35:00,
2013-07-13 04:38:00,71.7,48.6,29.21,ESE,116,0.0,0.0,44,0.00,,---,0.00,VWS V14.00,2013-07-13 09:38:00,
2013-07-13 04:41:00,71.5,49.0,29.21,ESE,116,0.0,0.0,45,0.00,,---,0.00,VWS V14.00,2013-07-13 09:41:00,
2013-07-13 04:44:00,71.5,49.0,29.21,ESE,116,0.0,0.0,45,0.00,,---,0.00,VWS V14.00,2013-07-13 09:44:00,
2013-07-13 04:45:00,71.5,49.0,29.21,ESE,116,0.0,0.0,45,0.00,,---,0.00,VWS V14.00,2013-07-13 09:45:00,
2013-07-13 04:53:00,71.1,49.9,29.21,ESE,116,0.0,0.0,47,0.00,,---,0.00,VWS V14.00,2013-07-13 09:53:00,
2013-07-13 04:56:00,71.1,49.9,29.21,ESE,116,0.0,0.0,47,0.00,,---,0.00,VWS V14.00,2013-07-13 09:56:00,
2013-07-13 04:59:00,70.9,50.3,29.21,ESE,116,0.0,0.0,48,0.00,,---,0.00,VWS V14.00,2013-07-13 09:59:00,
2013-07-13 05:00:00,70.9,50.3,29.21,ESE,116,0.0,0.0,48,0.00,,---,0.00,VWS V14.00,2013-07-13 10:00:00,
2013-07-13 05:05:00,70.9,50.3,29.21,ESE,116,0.0,0.0,48,0.00,,---,0.00,VWS V14.00,2013-07-13 10:05:00,
2013-07-13 05:11:00,70.8,50.7,29.21,ESE,116,0.0,0.0,49,0.00,,---,0.00,VWS V14.00,2013-07-13 10:11:00,
2013-07-13 05:14:00,70.6,51.1,29.21,ESE,116,0.0,0.0,50,0.00,,---,0.00,VWS V14.00,2013-07-13 10:14:00,
2013-07-13 05:17:00,70.6,51.1,29.21,ESE,116,0.0,0.0,50,0.00,,---,0.00,VWS V14.00,2013-07-13 10:17:00,
2013-07-13 05:23:00,70.4,51.4,29.21,ESE,116,0.0,0.0,51,0.00,,---,0.00,VWS V14.00,2013-07-13 10:23:00,
2013-07-13 05:27:00,70.2,51.3,29.21,ESE,116,0.0,0.0,51,0.00,,---,0.00,VWS V14.00,2013-07-13 10:27:00,
2013-07-13 05:30:00,70.0,51.1,29.21,ESE,116,0.0,0.0,51,0.00,,---,0.00,VWS V14.00,2013-07-13 10:30:00,
2013-07-13 05:36:00,69.9,51.5,29.21,ESE,116,0.0,0.0,52,0.00,,---,0.00,VWS V14.00,2013-07-13 10:36:00,
2013-07-13 05:39:00,70.0,52.1,29.21,ESE,116,0.0,0.0,53,0.00,,---,0.00,VWS V14.00,2013-07-13 10:39:00,
2013-07-13 05:42:00,69.9,52.0,29.21,ESE,116,0.0,0.0,53,0.00,,---,0.00,VWS V14.00,2013-07-13 10:42:00,
2013-07-13 05:45:00,69.9,52.5,29.21,ESE,116,0.0,0.0,54,0.00,,---,0.00,VWS V14.00,2013-07-13 10:45:00,
2013-07-13 05:48:00,69.9,52.5,29.21,ESE,116,0.0,0.0,54,0.00,,---,0.00,VWS V14.00,2013-07-13 10:48:00,
2013-07-13 05:51:00,69.7,52.8,29.21,ESE,116,0.0,0.0,55,0.00,,---,0.00,VWS V14.00,2013-07-13 10:51:00,
2013-07-13 05:54:00,69.7,52.8,29.21,ESE,116,0.0,0.0,55,0.00,,---,0.00,VWS V14.00,2013-07-13 10:54:00,
2013-07-13 06:00:00,69.7,53.3,29.21,ESE,116,0.0,0.0,56,0.00,,---,0.00,VWS V14.00,2013-07-13 11:00:00,
2013-07-13 06:03:00,69.5,53.1,29.21,ESE,116,0.0,0.0,56,0.00,,---,0.00,VWS V14.00,2013-07-13 11:03:00,
2013-07-13 06:06:00,69.5,53.1,29.21,ESE,116,0.0,0.0,56,0.00,,---,0.00,VWS V14.00,2013-07-13 11:06:00,
2013-07-13 06:09:00,69.5,53.1,29.21,ESE,116,0.0,0.0,56,0.00,,---,0.00,VWS V14.00,2013-07-13 11:09:00,
2013-07-13 06:15:00,69.3,53.0,29.21,ESE,116,0.0,0.0,56,0.00,,---,0.00,VWS V14.00,2013-07-13 11:15:00,
2013-07-13 06:21:00,69.1,52.8,29.21,ESE,116,0.0,0.0,56,0.00,,---,0.00,VWS V14.00,2013-07-13 11:21:00,
2013-07-13 06:24:00,69.1,52.8,29.21,ESE,116,0.0,0.0,56,0.00,,---,0.00,VWS V14.00,2013-07-13 11:24:00,
2013-07-13 06:27:00,69.1,52.8,29.21,ESE,116,0.0,0.0,56,0.00,,---,0.00,VWS V14.00,2013-07-13 11:27:00,
2013-07-13 06:30:00,69.0,53.1,29.21,ESE,116,0.0,0.0,57,0.00,,---,0.00,VWS V14.00,2013-07-13 11:30:00,
2013-07-13 06:33:00,69.0,53.1,29.21,ESE,116,0.0,0.0,57,0.00,,---,0.00,VWS V14.00,2013-07-13 11:33:00,
2013-07-13 06:36:00,69.0,52.6,29.21,ESE,116,0.0,0.0,56,0.00,,---,0.00,VWS V14.00,2013-07-13 11:36:00,
2013-07-13 06:39:00,69.0,53.1,29.21,ESE,116,0.0,0.0,57,0.00,,---,0.00,VWS V14.00,2013-07-13 11:39:00,
2013-07-13 06:42:00,69.0,53.1,29.21,ESE,116,0.0,0.0,57,0.00,,---,0.00,VWS V14.00,2013-07-13 11:42:00,
2013-07-13 06:45:00,68.8,52.9,29.21,ESE,116,0.0,0.0,57,0.00,,---,0.00,VWS V14.00,2013-07-13 11:45:00,
2013-07-13 06:48:00,68.8,52.9,29.21,ESE,116,0.0,0.0,57,0.00,,---,0.00,VWS V14.00,2013-07-13 11:48:00,
2013-07-13 06:51:00,68.8,53.4,29.21,ESE,116,0.0,0.0,58,0.00,,---,0.00,VWS V14.00,2013-07-13 11:51:00,
2013-07-13 06:54:00,69.0,53.6,29.23,ESE,116,0.0,0.0,58,0.00,,---,0.00,VWS V14.00,2013-07-13 11:54:00,
2013-07-13 06:57:00,69.0,53.6,29.23,ESE,116,0.0,0.0,58,0.00,,---,0.00,VWS V14.00,2013-07-13 11:57:00,
2013-07-13 07:00:00,69.0,53.6,29.23,ESE,116,0.0,0.0,58,0.00,,---,0.00,VWS V14.00,2013-07-13 12:00:00,
2013-07-13 07:03:00,69.1,53.8,29.23,ESE,116,0.0,0.0,58,0.00,,---,0.00,VWS V14.00,2013-07-13 12:03:00,
2013-07-13 07:09:00,69.3,54.4,29.21,ESE,116,0.0,0.0,59,0.00,,---,0.00,VWS V14.00,2013-07-13 12:09:00,
2013-07-13 07:15:00,69.5,54.1,29.21,ESE,116,0.0,0.0,58,0.00,,---,0.00,VWS V14.00,2013-07-13 12:15:00,
2013-07-13 07:18:00,69.7,54.3,29.21,ESE,116,0.0,0.0,58,0.00,,---,0.00,VWS V14.00,2013-07-13 12:18:00,
2013-07-13 07:21:00,69.7,54.3,29.21,ESE,116,0.0,2.7,58,0.00,,---,0.00,VWS V14.00,2013-07-13 12:21:00,
2013-07-13 07:27:00,70.0,54.6,29.21,ESE,116,0.0,2.7,58,0.00,,---,0.00,VWS V14.00,2013-07-13 12:27:00,
2013-07-13 07:30:00,70.2,54.8,29.21,ESE,116,0.0,2.7,58,0.00,,---,0.00,VWS V14.00,2013-07-13 12:30:00,
2013-07-13 07:36:00,70.4,54.5,29.21,ESE,116,0.0,0.0,57,0.00,,---,0.00,VWS V14.00,2013-07-13 12:36:00,
2013-07-13 07:39:00,70.6,54.6,29.23,ESE,116,0.0,0.0,57,0.00,,---,0.00,VWS V14.00,2013-07-13 12:39:00,
2013-07-13 07:42:00,70.8,54.3,29.23,ESE,116,0.0,0.0,56,0.00,,---,0.00,VWS V14.00,2013-07-13 12:42:00,
2013-07-13 07:45:00,70.9,54.5,29.23,ESE,116,0.0,0.0,56,0.00,,---,0.00,VWS V14.00,2013-07-13 12:45:00,
2013-07-13 07:51:00,71.5,55.5,29.23,ESE,116,0.0,0.0,57,0.00,,---,0.00,VWS V14.00,2013-07-13 12:51:00,
2013-07-13 07:54:00,71.8,55.3,29.21,ESE,116,0.0,0.0,56,0.00,,---,0.00,VWS V14.00,2013-07-13 12:54:00,
2013-07-13 07:57:00,72.2,55.7,29.21,ESE,116,0.0,0.0,56,0.00,,---,0.00,VWS V14.00,2013-07-13 12:57:00,
2013-07-13 08:00:00,72.7,56.2,29.21,ESE,116,0.0,0.0,56,0.00,,---,0.00,VWS V14.00,2013-07-13 13:00:00,
2013-07-13 08:03:00,73.1,56.5,29.21,ESE,116,0.0,0.0,56,0.00,,---,0.00,VWS V14.00,2013-07-13 13:03:00,
2013-07-13 08:09:00,74.0,57.3,29.23,ESE,116,0.0,0.0,56,0.00,,---,0.00,VWS V14.00,2013-07-13 13:09:00,
2013-07-13 08:12:00,74.5,57.8,29.23,ESE,116,0.0,0.0,56,0.00,,---,0.00,VWS V14.00,2013-07-13 13:12:00,
2013-07-13 08:15:00,75.1,58.3,29.23,ESE,116,0.0,0.0,56,0.00,,---,0.00,VWS V14.00,2013-07-13 13:15:00,
2013-07-13 08:18:00,75.6,58.3,29.23,ESE,116,0.0,0.0,55,0.00,,---,0.00,VWS V14.00,2013-07-13 13:18:00,
2013-07-13 08:21:00,76.2,58.3,29.23,SE,131,0.0,0.0,54,0.00,,---,0.00,VWS V14.00,2013-07-13 13:21:00,
2013-07-13 08:24:00,76.7,58.8,29.23,SE,131,0.0,0.0,54,0.00,,---,0.00,VWS V14.00,2013-07-13 13:24:00,
2013-07-13 08:27:00,77.2,58.8,29.23,SSE,158,0.0,0.0,53,0.00,,---,0.00,VWS V14.00,2013-07-13 13:27:00,
2013-07-13 08:30:00,77.8,58.8,29.23,SSE,158,0.0,0.0,52,0.00,,---,0.00,VWS V14.00,2013-07-13 13:30:00,
2013-07-13 08:33:00,78.3,59.3,29.23,SSE,158,0.0,0.0,52,0.00,,---,0.00,VWS V14.00,2013-07-13 13:33:00,
2013-07-13 08:36:00,79.0,59.4,29.23,SSE,158,0.0,0.0,51,0.00,,---,0.00,VWS V14.00,2013-07-13 13:36:00,
2013-07-13 08:39:00,79.6,58.8,29.23,SSE,158,0.0,0.0,49,0.00,,---,0.00,VWS V14.00,2013-07-13 13:39:00,
2013-07-13 08:42:00,80.1,59.2,29.23,SSE,158,0.0,0.0,49,0.00,,---,0.00,VWS V14.00,2013-07-13 13:42:00,
2013-07-13 08:45:00,80.7,59.2,29.23,SSE,158,0.0,0.0,48,0.00,,---,0.00,VWS V14.00,2013-07-13 13:45:00,
2013-07-13 08:48:00,81.2,59.1,29.23,SSE,159,0.0,0.0,47,0.00,,---,0.00,VWS V14.00,2013-07-13 13:48:00,
2013-07-13 08:51:00,81.6,58.8,29.23,SSW,196,0.0,0.0,46,0.00,,---,0.00,VWS V14.00,2013-07-13 13:51:00,
2013-07-13 08:54:00,82.1,59.3,29.23,SSW,196,0.0,0.0,46,0.00,,---,0.00,VWS V14.00,2013-07-13 13:54:00,
2013-07-13 08:57:00,82.6,59.2,29.23,SSW,196,0.0,0.0,45,0.00,,---,0.00,VWS V14.00,2013-07-13 13:57:00,
2013-07-13 09:00:00,83.0,58.9,29.23,SSE,166,3.6,3.6,44,0.00,,---,0.00,VWS V14.00,2013-07-13 14:00:00,
2013-07-13 09:06:00,83.9,59.7,29.23,SSE,168,3.6,4.0,44,0.00,,---,0.00,VWS V14.00,2013-07-13 14:06:00,
2013-07-13 09:09:00,84.3,59.4,29.23,South,175,2.2,4.0,43,0.00,,---,0.00,VWS V14.00,2013-07-13 14:09:00,
2013-07-13 09:12:00,84.6,59.7,29.23,South,174,2.7,4.0,43,0.00,,---,0.00,VWS V14.00,2013-07-13 14:12:00,
2013-07-13 09:15:00,84.8,59.2,29.23,South,184,0.0,4.0,42,0.00,,---,0.00,VWS V14.00,2013-07-13 14:15:00,
2013-07-13 09:21:00,85.5,59.2,29.23,SW,225,0.0,3.6,41,0.00,,---,0.00,VWS V14.00,2013-07-13 14:21:00,
2013-07-13 09:24:00,85.9,59.5,29.23,SSE,166,4.0,4.0,41,0.00,,---,0.00,VWS V14.00,2013-07-13 14:24:00,
2013-07-13 09:27:00,86.2,59.1,29.23,SSE,166,0.0,4.0,40,0.00,,---,0.00,VWS V14.00,2013-07-13 14:27:00,
2013-07-13 09:30:00,86.4,59.3,29.23,South,180,0.0,4.0,40,0.00,,---,0.00,VWS V14.00,2013-07-13 14:30:00,
2013-07-13 09:33:00,86.8,58.9,29.23,South,180,3.6,4.0,39,0.00,,---,0.00,VWS V14.00,2013-07-13 14:33:00,
2013-07-13 09:36:00,87.1,59.2,29.23,SSE,165,2.2,4.0,39,0.00,,---,0.00,VWS V14.00,2013-07-13 14:36:00,
2013-07-13 09:39:00,87.3,59.4,29.23,SE,140,2.7,4.0,39,0.00,,---,0.00,VWS V14.00,2013-07-13 14:39:00,
2013-07-13 09:42:00,87.7,59.7,29.23,SSE,159,4.0,4.0,39,0.00,,---,0.00,VWS V14.00,2013-07-13 14:42:00,
2013-07-13 09:45:00,88.0,60.0,29.23,SSE,156,3.1,4.0,39,0.00,,---,0.00,VWS V14.00,2013-07-13 14:45:00,
2013-07-13 09:48:00,88.2,60.2,29.23,South,191,2.7,4.5,39,0.00,,---,0.00,VWS V14.00,2013-07-13 14:48:00,
2013-07-13 09:54:00,88.6,59.8,29.23,SSW,194,3.1,4.5,38,0.00,,---,0.00,VWS V14.00,2013-07-13 14:54:00,
2013-07-13 10:00:00,89.3,59.6,29.23,SSE,162,2.2,4.5,37,0.00,,---,0.00,VWS V14.00,2013-07-13 15:00:00,
2013-07-13 10:03:00,89.3,59.6,29.23,South,171,4.0,5.8,37,0.00,,---,0.00,VWS V14.00,2013-07-13 15:03:00,
2013-07-13 10:09:00,89.8,60.1,29.23,SSE,163,3.6,5.8,37,0.00,,---,0.00,VWS V14.00,2013-07-13 15:09:00,
2013-07-13 10:15:00,90.2,59.7,29.23,South,181,3.1,5.8,36,0.00,,---,0.00,VWS V14.00,2013-07-13 15:15:00,
2013-07-13 10:18:00,90.4,59.8,29.23,SSE,165,0.0,4.0,36,0.00,,---,0.00,VWS V14.00,2013-07-13 15:18:00,
2013-07-13 10:21:00,90.6,59.2,29.23,SSE,160,0.0,4.0,35,0.00,,---,0.00,VWS V14.00,2013-07-13 15:21:00,
2013-07-13 10:24:00,90.7,59.3,29.23,SSE,166,4.0,4.0,35,0.00,,---,0.00,VWS V14.00,2013-07-13 15:24:00,
2013-07-13 10:27:00,90.9,59.5,29.23,South,179,2.7,4.0,35,0.00,,---,0.00,VWS V14.00,2013-07-13 15:27:00,
2013-07-13 10:30:00,91.1,59.7,29.23,SSE,162,2.7,5.4,35,0.00,,---,0.00,VWS V14.00,2013-07-13 15:30:00,
2013-07-13 10:33:00,91.3,59.0,29.23,South,180,3.1,5.4,34,0.00,,---,0.00,VWS V14.00,2013-07-13 15:33:00,
2013-07-13 10:36:00,91.5,59.2,29.23,South,171,2.2,5.4,34,0.00,,---,0.00,VWS V14.00,2013-07-13 15:36:00,
2013-07-13 10:42:00,91.6,59.3,29.21,South,186,2.7,5.4,34,0.00,,---,0.00,VWS V14.00,2013-07-13 15:42:00,
2013-07-13 10:45:00,91.8,58.7,29.21,South,170,3.1,5.4,33,0.00,,---,0.00,VWS V14.00,2013-07-13 15:45:00,
2013-07-13 10:48:00,92.2,59.0,29.21,SSE,168,3.1,5.4,33,0.00,,---,0.00,VWS V14.00,2013-07-13 15:48:00,
2013-07-13 10:51:00,92.4,58.3,29.21,SSE,162,0.0,5.4,32,0.00,,---,0.00,VWS V14.00,2013-07-13 15:51:00,
2013-07-13 10:54:00,92.5,58.4,29.21,South,182,3.6,5.4,32,0.00,,---,0.00,VWS V14.00,2013-07-13 15:54:00,
2013-07-13 10:57:00,93.1,58.9,29.21,SSE,163,2.7,5.4,32,0.00,,---,0.00,VWS V14.00,2013-07-13 15:57:00,
2013-07-13 11:00:00,93.3,59.0,29.21,SSE,162,3.6,5.4,32,0.00,,---,0.00,VWS V14.00,2013-07-13 16:00:00,
2013-07-13 11:07:00,93.4,58.3,29.21,SSE,167,2.7,5.4,31,0.00,,---,0.00,VWS V14.00,2013-07-13 16:07:00,
2013-07-13 11:10:00,93.4,58.3,29.21,South,187,0.0,5.4,31,0.00,,---,0.00,VWS V14.00,2013-07-13 16:10:00,
2013-07-13 11:13:00,93.4,58.3,29.21,SSE,164,3.6,5.4,31,0.00,,---,0.00,VWS V14.00,2013-07-13 16:13:00,
2013-07-13 11:15:00,93.3,58.2,29.21,SSE,165,3.1,5.4,31,0.00,,---,0.00,VWS V14.00,2013-07-13 16:15:00,
2013-07-13 11:16:00,93.3,58.2,29.21,SSE,165,3.1,5.4,31,0.00,,---,0.00,VWS V14.00,2013-07-13 16:16:00,
2013-07-13 11:22:00,93.1,58.0,29.21,SSE,165,2.2,4.9,31,0.00,,---,0.00,VWS V14.00,2013-07-13 16:22:00,
2013-07-13 11:28:00,92.7,57.7,29.21,SSE,163,3.6,4.9,31,0.00,,---,0.00,VWS V14.00,2013-07-13 16:28:00,
2013-07-13 11:30:00,92.7,57.7,29.21,South,175,3.1,5.4,31,0.00,,---,0.00,VWS V14.00,2013-07-13 16:30:00,
2013-07-13 11:31:00,92.7,57.7,29.21,South,175,3.1,3.1,31,0.00,,---,0.00,VWS V14.00,2013-07-13 16:31:00,
2013-07-13 11:37:00,92.4,57.4,29.21,SSE,161,4.0,5.4,31,0.00,,---,0.00,VWS V14.00,2013-07-13 16:37:00,
2013-07-13 11:40:00,92.2,57.2,29.21,SSE,162,3.6,5.4,31,0.00,,---,0.00,VWS V14.00,2013-07-13 16:40:00,
2013-07-13 11:43:00,92.2,57.2,29.21,SSE,152,4.9,5.4,31,0.00,,---,0.00,VWS V14.00,2013-07-13 16:43:00,
2013-07-13 11:45:00,92.0,57.1,29.21,SSE,162,4.9,6.3,31,0.00,,---,0.00,VWS V14.00,2013-07-13 16:45:00,
2013-07-13 11:46:00,92.0,57.1,29.21,SSE,166,5.8,5.8,31,0.00,,---,0.00,VWS V14.00,2013-07-13 16:46:00,
2013-07-13 11:49:00,92.0,57.1,29.21,South,172,5.4,6.3,31,0.00,,---,0.00,VWS V14.00,2013-07-13 16:49:00,
2013-07-13 11:52:00,91.8,56.9,29.21,South,179,5.4,6.3,31,0.00,,---,0.00,VWS V14.00,2013-07-13 16:52:00,
2013-07-13 11:55:00,91.6,56.8,29.21,South,175,5.4,6.3,31,0.00,,---,0.00,VWS V14.00,2013-07-13 16:55:00,
2013-07-13 11:58:00,91.5,56.6,29.21,SSE,167,5.4,6.3,31,0.00,,---,0.00,VWS V14.00,2013-07-13 16:58:00,
2013-07-13 12:01:00,91.3,56.4,29.21,SSE,152,5.4,6.3,31,0.00,,---,0.00,VWS V14.00,2013-07-13 17:01:00,
2013-07-13 12:07:00,91.1,56.3,29.21,SSE,150,5.4,6.3,31,0.00,,---,0.00,VWS V14.00,2013-07-13 17:07:00,
2013-07-13 12:10:00,90.9,56.1,29.21,SSE,155,5.4,6.3,31,0.00,,---,0.00,VWS V14.00,2013-07-13 17:10:00,
2013-07-13 12:13:00,90.7,56.0,29.21,SSE,166,6.3,6.3,31,0.00,,---,0.00,VWS V14.00,2013-07-13 17:13:00,
2013-07-13 12:16:00,90.7,56.0,29.21,SSE,162,7.6,8.1,31,0.00,,---,0.00,VWS V14.00,2013-07-13 17:16:00,
2013-07-13 12:19:00,90.7,56.0,29.21,South,174,5.8,8.1,31,0.00,,---,0.00,VWS V14.00,2013-07-13 17:19:00,
2013-07-13 12:25:00,90.4,55.7,29.21,SSE,154,4.0,8.1,31,0.00,,---,0.00,VWS V14.00,2013-07-13 17:25:00,
2013-07-13 12:28:00,90.4,55.7,29.21,SSE,164,5.8,8.1,31,0.00,,---,0.00,VWS V14.00,2013-07-13 17:28:00,
2013-07-13 12:31:00,90.4,55.7,29.21,South,170,5.8,6.3,31,0.00,,---,0.00,VWS V14.00,2013-07-13 17:31:00,
2013-07-13 12:34:00,90.2,55.5,29.21,South,172,7.6,8.3,31,0.00,,---,0.00,VWS V14.00,2013-07-13 17:34:00,
2013-07-13 12:40:00,90.0,55.3,29.18,South,170,8.3,8.7,31,0.00,,---,0.00,VWS V14.00,2013-07-13 17:40:00,
2013-07-13 12:43:00,89.8,55.2,29.18,SSE,164,7.6,8.7,31,0.00,,---,0.00,VWS V14.00,2013-07-13 17:43:00,
2013-07-13 12:45:00,89.8,55.2,29.18,South,179,7.2,8.7,31,0.00,,---,0.00,VWS V14.00,2013-07-13 17:45:00,
2013-07-13 12:46:00,89.8,55.2,29.18,South,174,6.3,7.2,31,0.00,,---,0.00,VWS V14.00,2013-07-13 17:46:00,
2013-07-13 12:52:00,89.7,55.0,29.18,SSE,163,7.2,8.3,31,0.00,,---,0.00,VWS V14.00,2013-07-13 17:52:00,
2013-07-13 12:55:00,89.7,55.0,29.18,SSE,154,6.3,8.3,31,0.00,,---,0.00,VWS V14.00,2013-07-13 17:55:00,
2013-07-13 13:00:00,89.5,54.9,29.18,SE,138,4.9,8.7,31,0.00,,---,0.00,VWS V14.00,2013-07-13 18:00:00,
2013-07-13 13:01:00,89.5,54.9,29.18,SSE,167,6.3,6.3,31,0.00,,---,0.00,VWS V14.00,2013-07-13 18:01:00,
2013-07-13 13:07:00,89.5,54.9,29.18,South,180,5.8,7.6,31,0.00,,---,0.00,VWS V14.00,2013-07-13 18:07:00,
2013-07-13 13:13:00,89.3,54.7,29.18,South,172,6.3,7.6,31,0.00,,---,0.00,VWS V14.00,2013-07-13 18:13:00,
2013-07-13 13:19:00,89.5,54.9,29.18,South,175,6.3,8.1,31,0.00,,---,0.00,VWS V14.00,2013-07-13 18:19:00,
2013-07-13 13:22:00,89.5,54.9,29.18,SSE,166,4.9,8.1,31,0.00,,---,0.00,VWS V14.00,2013-07-13 18:22:00,
2013-07-13 13:25:00,89.5,54.9,29.18,SSE,159,6.3,8.1,31,0.00,,---,0.00,VWS V14.00,2013-07-13 18:25:00,
2013-07-13 13:28:00,89.5,54.9,29.18,South,182,5.8,8.1,31,0.00,,---,0.00,VWS V14.00,2013-07-13 18:28:00,
2013-07-13 13:30:00,89.5,54.9,29.18,SSE,167,6.3,8.1,31,0.00,,---,0.00,VWS V14.00,2013-07-13 18:30:00,
2013-07-13 13:31:00,89.5,54.9,29.18,South,182,5.4,6.3,31,0.00,,---,0.00,VWS V14.00,2013-07-13 18:31:00,
2013-07-13 13:37:00,89.5,54.0,29.18,SSE,153,4.0,6.7,30,0.00,,---,0.00,VWS V14.00,2013-07-13 18:37:00,
2013-07-13 13:40:00,89.5,54.0,29.18,SE,146,5.8,6.7,30,0.00,,---,0.00,VWS V14.00,2013-07-13 18:40:00,
2013-07-13 13:43:00,89.5,54.0,29.18,SSE,158,4.9,6.7,30,0.00,,---,0.00,VWS V14.00,2013-07-13 18:43:00,
2013-07-13 13:45:00,89.7,54.1,29.18,SSE,157,4.0,6.7,30,0.00,,---,0.00,VWS V14.00,2013-07-13 18:45:00,
2013-07-13 13:49:00,89.7,54.1,29.18,SSE,160,7.6,8.7,30,0.00,,---,0.00,VWS V14.00,2013-07-13 18:49:00,
2013-07-13 13:52:00,89.7,54.1,29.18,South,181,5.8,8.7,30,0.00,,---,0.00,VWS V14.00,2013-07-13 18:52:00,
2013-07-13 13:58:00,89.8,54.3,29.18,SSE,160,5.8,8.7,30,0.00,,---,0.00,VWS V14.00,2013-07-13 18:58:00,
2013-07-13 14:01:00,89.8,54.3,29.18,SSE,164,5.8,8.7,30,0.00,,---,0.00,VWS V14.00,2013-07-13 19:01:00,
2013-07-13 14:04:00,89.8,54.3,29.18,SSE,165,7.6,8.7,30,0.00,,---,0.00,VWS V14.00,2013-07-13 19:04:00,
2013-07-13 14:10:00,89.8,54.3,29.18,South,178,6.3,8.7,30,0.00,,---,0.00,VWS V14.00,2013-07-13 19:10:00,
2013-07-13 14:13:00,89.8,54.3,29.18,South,170,3.1,8.7,30,0.00,,---,0.00,VWS V14.00,2013-07-13 19:13:00,
2013-07-13 14:16:00,89.8,54.3,29.18,SSE,168,3.6,4.9,30,0.00,,---,0.00,VWS V14.00,2013-07-13 19:16:00,
2013-07-13 14:19:00,89.8,54.3,29.18,SSE,162,5.8,5.8,30,0.00,,---,0.00,VWS V14.00,2013-07-13 19:19:00,
2013-07-13 14:22:00,89.8,54.3,29.18,South,179,7.6,8.7,30,0.00,,---,0.00,VWS V14.00,2013-07-13 19:22:00,
2013-07-13 14:25:00,89.8,54.3,29.18,SSE,160,5.8,8.7,30,0.00,,---,0.00,VWS V14.00,2013-07-13 19:25:00,
2013-07-13 14:28:00,89.8,54.3,29.18,SSE,167,5.8,9.2,30,0.00,,---,0.00,VWS V14.00,2013-07-13 19:28:00,
2013-07-13 14:30:00,90.0,54.5,29.18,East,84,5.4,9.2,30,0.00,,---,0.00,VWS V14.00,2013-07-13 19:30:00,
2013-07-13 14:31:00,90.0,54.5,29.18,South,181,6.3,6.3,30,0.00,,---,0.00,VWS V14.00,2013-07-13 19:31:00,
2013-07-13 14:34:00,90.0,54.5,29.18,South,169,4.9,7.6,30,0.00,,---,0.00,VWS V14.00,2013-07-13 19:34:00,
2013-07-13 14:37:00,90.0,54.5,29.18,SSE,157,5.8,7.6,30,0.00,,---,0.00,VWS V14.00,2013-07-13 19:37:00,
2013-07-13 14:40:00,90.2,54.6,29.15,South,179,6.3,7.6,30,0.00,,---,0.00,VWS V14.00,2013-07-13 19:40:00,
2013-07-13 14:43:00,90.2,54.6,29.15,SE,138,5.4,8.7,30,0.00,,---,0.00,VWS V14.00,2013-07-13 19:43:00,
2013-07-13 14:45:00,90.2,54.6,29.15,South,172,6.3,8.7,30,0.00,,---,0.00,VWS V14.00,2013-07-13 19:45:00,
2013-07-13 14:49:00,90.4,54.8,29.15,SSE,161,3.6,6.3,30,0.00,,---,0.00,VWS V14.00,2013-07-13 19:49:00,
2013-07-13 14:52:00,90.4,53.8,29.15,SSE,164,3.1,6.3,29,0.00,,---,0.00,VWS V14.00,2013-07-13 19:52:00,
2013-07-13 14:55:00,90.4,53.8,29.15,SSE,154,4.0,6.3,29,0.00,,---,0.00,VWS V14.00,2013-07-13 19:55:00,
2013-07-13 14:58:00,90.4,53.8,29.15,South,170,3.6,6.3,29,0.00,,---,0.00,VWS V14.00,2013-07-13 19:58:00,
2013-07-13 15:00:00,90.4,53.8,29.15,South,191,2.2,6.3,29,0.00,,---,0.00,VWS V14.00,2013-07-13 20:00:00,
2013-07-13 15:01:00,90.4,53.8,29.15,SSE,164,4.0,4.0,29,0.00,,---,0.00,VWS V14.00,2013-07-13 20:01:00,
2013-07-13 15:04:00,90.6,54.0,29.15,South,169,2.7,4.0,29,0.00,,---,0.00,VWS V14.00,2013-07-13 20:04:00,
2013-07-13 15:07:00,90.6,54.0,29.15,SSE,164,2.7,4.0,29,0.00,,---,0.00,VWS V14.00,2013-07-13 20:07:00,
2013-07-13 15:10:00,90.6,54.0,29.15,South,182,3.1,4.0,29,0.00,,---,0.00,VWS V14.00,2013-07-13 20:10:00,
2013-07-13 15:13:00,90.7,54.1,29.15,SSE,153,2.7,4.0,29,0.00,,---,0.00,VWS V14.00,2013-07-13 20:13:00,
2013-07-13 15:19:00,90.7,54.1,29.15,SSE,154,0.0,2.7,29,0.00,,---,0.00,VWS V14.00,2013-07-13 20:19:00,
2013-07-13 15:22:00,90.7,54.1,29.15,SSE,155,0.0,4.0,29,0.00,,---,0.00,VWS V14.00,2013-07-13 20:22:00,
2013-07-13 15:25:00,90.7,54.1,29.15,SSW,205,0.0,4.0,29,0.00,,---,0.00,VWS V14.00,2013-07-13 20:25:00,
2013-07-13 15:28:00,90.7,54.1,29.15,SSW,209,0.0,4.0,29,0.00,,---,0.00,VWS V14.00,2013-07-13 20:28:00,
2013-07-13 15:30:00,90.9,54.3,29.15,SSW,209,0.0,4.0,29,0.00,,---,0.00,VWS V14.00,2013-07-13 20:30:00,
2013-07-13 15:34:00,91.1,54.5,29.15,SSW,210,0.0,0.0,29,0.00,,---,0.00,VWS V14.00,2013-07-13 20:34:00,
2013-07-13 15:37:00,91.1,55.4,29.15,SSW,210,0.0,0.0,30,0.00,,---,0.00,VWS V14.00,2013-07-13 20:37:00,
2013-07-13 15:40:00,91.3,55.5,29.15,SSW,210,0.0,0.0,30,0.00,,---,0.00,VWS V14.00,2013-07-13 20:40:00,
2013-07-13 15:45:00,91.3,55.5,29.15,SSW,210,0.0,0.0,30,0.00,,---,0.00,VWS V14.00,2013-07-13 20:45:00,
2013-07-13 15:46:00,91.3,55.5,29.15,SSW,210,0.0,0.0,30,0.00,,---,0.00,VWS V14.00,2013-07-13 20:46:00,
2013-07-13 15:52:00,91.5,55.7,29.15,SSW,210,0.0,0.0,30,0.00,,---,0.00,VWS V14.00,2013-07-13 20:52:00,
2013-07-13 15:55:00,91.6,55.8,29.12,SSW,210,0.0,0.0,30,0.00,,---,0.00,VWS V14.00,2013-07-13 20:55:00,
2013-07-13 15:58:00,91.6,55.8,29.12,SSW,210,0.0,0.0,30,0.00,,---,0.00,VWS V14.00,2013-07-13 20:58:00,
2013-07-13 16:00:00,91.6,55.8,29.12,SSW,210,0.0,0.0,30,0.00,,---,0.00,VWS V14.00,2013-07-13 21:00:00,
2013-07-13 16:01:00,91.6,55.8,29.12,SSW,210,0.0,0.0,30,0.00,,---,0.00,VWS V14.00,2013-07-13 21:01:00,
2013-07-13 16:04:00,91.6,55.8,29.12,SSW,210,0.0,0.0,30,0.00,,---,0.00,VWS V14.00,2013-07-13 21:04:00,
2013-07-13 16:07:00,91.6,55.8,29.12,SSW,210,0.0,0.0,30,0.00,,---,0.00,VWS V14.00,2013-07-13 21:07:00,
2013-07-13 16:13:00,91.6,54.9,29.15,SSW,210,0.0,0.0,29,0.00,,---,0.00,VWS V14.00,2013-07-13 21:13:00,
2013-07-13 16:15:00,91.6,55.8,29.15,SSW,210,0.0,0.0,30,0.00,,---,0.00,VWS V14.00,2013-07-13 21:15:00,
2013-07-13 16:19:00,91.6,54.9,29.15,SSW,210,0.0,0.0,29,0.00,,---,0.00,VWS V14.00,2013-07-13 21:19:00,
2013-07-13 16:22:00,91.6,54.9,29.15,SSW,210,0.0,0.0,29,0.00,,---,0.00,VWS V14.00,2013-07-13 21:22:00,
2013-07-13 16:25:00,91.6,54.9,29.15,SSW,210,0.0,0.0,29,0.00,,---,0.00,VWS V14.00,2013-07-13 21:25:00,
2013-07-13 16:28:00,91.5,54.8,29.15,SSW,210,0.0,0.0,29,0.00,,---,0.00,VWS V14.00,2013-07-13 21:28:00,
2013-07-13 16:30:00,91.5,54.8,29.15,SSW,210,0.0,0.0,29,0.00,,---,0.00,VWS V14.00,2013-07-13 21:30:00,
2013-07-13 16:38:00,91.5,54.8,29.15,WSW,244,0.0,2.2,29,0.00,,---,0.00,VWS V14.00,2013-07-13 21:38:00,
2013-07-13 16:41:00,91.5,55.7,29.15,WSW,244,0.0,2.2,30,0.00,,---,0.00,VWS V14.00,2013-07-13 21:41:00,
2013-07-13 16:44:00,91.5,55.7,29.15,WSW,243,0.0,2.2,30,0.00,,---,0.00,VWS V14.00,2013-07-13 21:44:00,
2013-07-13 16:45:00,91.5,55.7,29.15,WSW,243,0.0,2.2,30,0.00,,---,0.00,VWS V14.00,2013-07-13 21:45:00,
2013-07-13 16:50:00,91.5,55.7,29.15,WSW,243,0.0,0.0,30,0.00,,---,0.00,VWS V14.00,2013-07-13 21:50:00,
2013-07-13 16:53:00,91.3,55.5,29.15,WSW,243,0.0,0.0,30,0.00,,---,0.00,VWS V14.00,2013-07-13 21:53:00,
2013-07-13 16:56:00,91.3,55.5,29.15,WSW,243,0.0,0.0,30,0.00,,---,0.00,VWS V14.00,2013-07-13 21:56:00,
2013-07-13 16:59:00,91.3,55.5,29.15,WSW,243,0.0,0.0,30,0.00,,---,0.00,VWS V14.00,2013-07-13 21:59:00,
2013-07-13 17:00:00,91.3,55.5,29.15,WSW,243,0.0,0.0,30,0.00,,---,0.00,VWS V14.00,2013-07-13 22:00:00,
2013-07-13 17:02:00,91.3,55.5,29.15,WSW,243,0.0,0.0,30,0.00,,---,0.00,VWS V14.00,2013-07-13 22:02:00,
2013-07-13 17:05:00,91.1,54.5,29.15,WSW,243,0.0,0.0,29,0.00,,---,0.00,VWS V14.00,2013-07-13 22:05:00,
2013-07-13 17:08:00,91.1,54.5,29.15,WSW,243,0.0,0.0,29,0.00,,---,0.00,VWS V14.00,2013-07-13 22:08:00,
2013-07-13 17:11:00,91.1,54.5,29.15,WSW,243,0.0,0.0,29,0.00,,---,0.00,VWS V14.00,2013-07-13 22:11:00,
2013-07-13 17:15:00,90.9,54.3,29.15,WSW,243,0.0,0.0,29,0.00,,---,0.00,VWS V14.00,2013-07-13 22:15:00,
2013-07-13 17:17:00,90.9,54.3,29.15,WSW,243,0.0,0.0,29,0.00,,---,0.00,VWS V14.00,2013-07-13 22:17:00,
2013-07-13 17:20:00,90.7,54.1,29.15,WSW,243,0.0,0.0,29,0.00,,---,0.00,VWS V14.00,2013-07-13 22:20:00,
2013-07-13 17:23:00,90.6,54.9,29.15,WSW,243,0.0,0.0,30,0.00,,---,0.00,VWS V14.00,2013-07-13 22:23:00,
2013-07-13 17:26:00,90.6,54.9,29.15,WSW,243,0.0,0.0,30,0.00,,---,0.00,VWS V14.00,2013-07-13 22:26:00,
2013-07-13 17:29:00,90.4,54.8,29.15,WSW,243,0.0,0.0,30,0.00,,---,0.00,VWS V14.00,2013-07-13 22:29:00,
2013-07-13 17:32:00,90.4,54.8,29.15,WSW,243,0.0,0.0,30,0.00,,---,0.00,VWS V14.00,2013-07-13 22:32:00,
2013-07-13 17:38:00,90.2,54.6,29.15,WSW,243,0.0,0.0,30,0.00,,---,0.00,VWS V14.00,2013-07-13 22:38:00,
2013-07-13 17:41:00,90.0,54.5,29.15,WSW,243,0.0,0.0,30,0.00,,---,0.00,VWS V14.00,2013-07-13 22:41:00,
2013-07-13 17:44:00,90.0,55.3,29.15,WSW,243,0.0,0.0,31,0.00,,---,0.00,VWS V14.00,2013-07-13 22:44:00,
2013-07-13 17:47:00,89.8,55.2,29.15,WSW,243,0.0,0.0,31,0.00,,---,0.00,VWS V14.00,2013-07-13 22:47:00,
2013-07-13 17:50:00,89.8,55.2,29.15,WSW,243,0.0,0.0,31,0.00,,---,0.00,VWS V14.00,2013-07-13 22:50:00,
2013-07-13 17:53:00,89.7,55.0,29.15,WSW,243,0.0,0.0,31,0.00,,---,0.00,VWS V14.00,2013-07-13 22:53:00,
2013-07-13 17:59:00,89.5,54.9,29.15,WSW,243,0.0,0.0,31,0.00,,---,0.00,VWS V14.00,2013-07-13 22:59:00,
2013-07-13 18:00:00,89.5,54.9,29.15,WSW,243,0.0,0.0,31,0.00,,---,0.00,VWS V14.00,2013-07-13 23:00:00,
2013-07-13 18:05:00,89.3,54.7,29.15,WSW,243,0.0,0.0,31,0.00,,---,0.00,VWS V14.00,2013-07-13 23:05:00,
2013-07-13 18:08:00,89.3,54.7,29.15,WSW,243,0.0,0.0,31,0.00,,---,0.00,VWS V14.00,2013-07-13 23:08:00,
2013-07-13 18:11:00,89.3,55.6,29.15,WSW,243,0.0,0.0,32,0.00,,---,0.00,VWS V14.00,2013-07-13 23:11:00,
2013-07-13 18:14:00,89.1,55.5,29.15,WSW,243,0.0,0.0,32,0.00,,---,0.00,VWS V14.00,2013-07-13 23:14:00,
2013-07-13 18:20:00,89.1,55.5,29.15,WSW,243,0.0,0.0,32,0.00,,---,0.00,VWS V14.00,2013-07-13 23:20:00,
2013-07-13 18:23:00,88.9,55.3,29.15,WSW,243,0.0,0.0,32,0.00,,---,0.00,VWS V14.00,2013-07-13 23:23:00,
2013-07-13 18:29:00,88.8,55.1,29.15,WSW,243,0.0,0.0,32,0.00,,---,0.00,VWS V14.00,2013-07-13 23:29:00,
2013-07-13 18:30:00,88.8,55.1,29.15,WSW,244,0.0,0.0,32,0.00,,---,0.00,VWS V14.00,2013-07-13 23:30:00,
2013-07-13 18:38:00,88.4,54.8,29.15,WSW,244,0.0,0.0,32,0.00,,---,0.00,VWS V14.00,2013-07-13 23:38:00,
2013-07-13 18:41:00,88.4,54.8,29.12,WSW,244,0.0,0.0,32,0.00,,---,0.00,VWS V14.00,2013-07-13 23:41:00,
2013-07-13 18:44:00,88.2,54.7,29.12,WSW,244,0.0,0.0,32,0.00,,---,0.00,VWS V14.00,2013-07-13 23:44:00,
2013-07-13 18:47:00,88.0,54.5,29.12,WSW,244,0.0,0.0,32,0.00,,---,0.00,VWS V14.00,2013-07-13 23:47:00,
2013-07-13 18:50:00,88.0,54.5,29.12,WSW,244,0.0,0.0,32,0.00,,---,0.00,VWS V14.00,2013-07-13 23:50:00,
2013-07-13 18:53:00,87.9,54.3,29.12,WSW,244,0.0,0.0,32,0.00,,---,0.00,VWS V14.00,2013-07-13 23:53:00,
2013-07-13 18:59:00,87.9,54.3,29.12,WSW,244,0.0,0.0,32,0.00,,---,0.00,VWS V14.00,2013-07-13 23:59:00,
2013-07-13 19:00:00,87.7,54.2,29.12,WSW,244,0.0,0.0,32,0.00,,---,0.00,VWS V14.00,2013-07-14 00:00:00,
2013-07-13 19:05:00,87.7,55.0,29.12,WSW,244,0.0,0.0,33,0.00,,---,0.00,VWS V14.00,2013-07-14 00:05:00,
2013-07-13 19:08:00,87.5,54.9,29.12,North,353,0.0,0.0,33,0.00,,---,0.00,VWS V14.00,2013-07-14 00:08:00,
2013-07-13 19:11:00,87.5,54.9,29.15,North,353,0.0,0.0,33,0.00,,---,0.00,VWS V14.00,2013-07-14 00:11:00,
2013-07-13 19:14:00,87.5,54.9,29.15,North,353,0.0,0.0,33,0.00,,---,0.00,VWS V14.00,2013-07-14 00:14:00,
2013-07-13 19:17:00,87.5,54.9,29.15,North,353,0.0,0.0,33,0.00,,---,0.00,VWS V14.00,2013-07-14 00:17:00,
2013-07-13 19:20:00,87.3,54.7,29.15,NNW,343,0.0,0.0,33,0.00,,---,0.00,VWS V14.00,2013-07-14 00:20:00,
2013-07-13 19:23:00,87.3,54.7,29.12,NNW,343,0.0,0.0,33,0.00,,---,0.00,VWS V14.00,2013-07-14 00:23:00,
2013-07-13 19:26:00,87.3,54.7,29.12,NNW,343,0.0,0.0,33,0.00,,---,0.00,VWS V14.00,2013-07-14 00:26:00,
2013-07-13 19:29:00,87.1,54.6,29.12,NNW,343,0.0,0.0,33,0.00,,---,0.00,VWS V14.00,2013-07-14 00:29:00,
2013-07-13 19:32:00,87.1,54.6,29.12,NNW,343,0.0,0.0,33,0.00,,---,0.00,VWS V14.00,2013-07-14 00:32:00,
2013-07-13 19:35:00,87.1,54.6,29.12,NNW,342,0.0,0.0,33,0.00,,---,0.00,VWS V14.00,2013-07-14 00:35:00,
2013-07-13 19:38:00,87.0,54.4,29.12,North,353,0.0,3.1,33,0.00,,---,0.00,VWS V14.00,2013-07-14 00:38:00,
2013-07-13 19:41:00,87.0,54.4,29.12,North,353,0.0,3.1,33,0.00,,---,0.00,VWS V14.00,2013-07-14 00:41:00,
2013-07-13 19:44:00,86.8,53.4,29.12,North,353,0.0,3.1,32,0.00,,---,0.00,VWS V14.00,2013-07-14 00:44:00,
2013-07-13 19:47:00,86.8,53.4,29.12,NNW,339,0.0,0.0,32,0.00,,---,0.00,VWS V14.00,2013-07-14 00:47:00,
2013-07-13 19:50:00,86.6,53.3,29.12,NNW,345,0.0,0.0,32,0.00,,---,0.00,VWS V14.00,2013-07-14 00:50:00,
2013-07-13 19:53:00,86.6,53.3,29.12,NNW,343,0.0,0.0,32,0.00,,---,0.00,VWS V14.00,2013-07-14 00:53:00,
2013-07-13 19:56:00,86.4,53.9,29.12,NNW,344,0.0,0.0,33,0.00,,---,0.00,VWS V14.00,2013-07-14 00:56:00,
2013-07-13 19:59:00,86.4,53.9,29.12,NNW,345,0.0,0.0,33,0.00,,---,0.00,VWS V14.00,2013-07-14 00:59:00,
2013-07-13 20:00:00,86.2,53.8,29.12,NNW,345,0.0,0.0,33,0.00,,---,0.00,VWS V14.00,2013-07-14 01:00:00,
2013-07-13 20:05:00,86.2,53.0,29.12,NNW,345,0.0,0.0,32,0.00,,---,0.00,VWS V14.00,2013-07-14 01:05:00,
2013-07-13 20:08:00,86.1,52.8,29.12,NNW,345,0.0,0.0,32,0.00,,---,0.00,VWS V14.00,2013-07-14 01:08:00,
2013-07-13 20:14:00,85.7,52.5,29.12,NNW,345,0.0,0.0,32,0.00,,---,0.00,VWS V14.00,2013-07-14 01:14:00,
2013-07-13 20:17:00,85.5,52.3,29.12,NNW,345,0.0,0.0,32,0.00,,---,0.00,VWS V14.00,2013-07-14 01:17:00,
2013-07-13 20:20:00,85.3,52.2,29.12,NNW,345,0.0,0.0,32,0.00,,---,0.00,VWS V14.00,2013-07-14 01:20:00,
2013-07-13 20:23:00,85.3,52.2,29.12,NNW,345,0.0,0.0,32,0.00,,---,0.00,VWS V14.00,2013-07-14 01:23:00,
2013-07-13 20:29:00,85.0,51.8,29.12,NNW,345,0.0,0.0,32,0.00,,---,0.00,VWS V14.00,2013-07-14 01:29:00,
2013-07-13 20:30:00,85.0,51.8,29.12,NNW,345,0.0,0.0,32,0.00,,---,0.00,VWS V14.00,2013-07-14 01:30:00,
2013-07-13 20:32:00,84.8,51.7,29.12,NNW,345,0.0,0.0,32,0.00,,---,0.00,VWS V14.00,2013-07-14 01:32:00,
2013-07-13 20:35:00,84.8,51.7,29.12,NNW,345,0.0,0.0,32,0.00,,---,0.00,VWS V14.00,2013-07-14 01:35:00,
2013-07-13 20:38:00,84.6,52.4,29.12,NNW,345,0.0,0.0,33,0.00,,---,0.00,VWS V14.00,2013-07-14 01:38:00,
2013-07-13 20:44:00,84.4,52.2,29.15,NNW,345,0.0,0.0,33,0.00,,---,0.00,VWS V14.00,2013-07-14 01:44:00,
2013-07-13 20:45:00,84.3,52.1,29.15,NNW,345,0.0,0.0,33,0.00,,---,0.00,VWS V14.00,2013-07-14 01:45:00,
2013-07-13 20:47:00,84.3,52.1,29.15,NNW,345,0.0,0.0,33,0.00,,---,0.00,VWS V14.00,2013-07-14 01:47:00,
2013-07-13 20:50:00,84.1,51.9,29.15,NNW,345,0.0,0.0,33,0.00,,---,0.00,VWS V14.00,2013-07-14 01:50:00,
2013-07-13 20:53:00,84.1,51.9,29.15,NNW,345,0.0,0.0,33,0.00,,---,0.00,VWS V14.00,2013-07-14 01:53:00,
2013-07-13 20:56:00,84.1,51.9,29.15,NNW,345,0.0,0.0,33,0.00,,---,0.00,VWS V14.00,2013-07-14 01:56:00,
2013-07-13 20:59:00,83.9,51.8,29.15,NNW,345,0.0,0.0,33,0.00,,---,0.00,VWS V14.00,2013-07-14 01:59:00,
2013-07-13 21:05:00,83.7,52.4,29.15,South,180,0.0,0.0,34,0.00,,---,0.00,VWS V14.00,2013-07-14 02:05:00,
2013-07-13 21:08:00,83.7,52.4,29.15,South,179,0.0,0.0,34,0.00,,---,0.00,VWS V14.00,2013-07-14 02:08:00,
2013-07-13 21:11:00,83.5,52.2,29.15,East,80,2.2,2.2,34,0.00,,---,0.00,VWS V14.00,2013-07-14 02:11:00,
2013-07-13 21:14:00,83.4,52.1,29.15,SE,142,5.4,6.3,34,0.00,,---,0.00,VWS V14.00,2013-07-14 02:14:00,
2013-07-13 21:15:00,83.4,52.1,29.15,SE,144,2.7,6.3,34,0.00,,---,0.00,VWS V14.00,2013-07-14 02:15:00,
2013-07-13 21:20:00,83.2,51.9,29.15,South,180,4.0,8.1,34,0.00,,---,0.00,VWS V14.00,2013-07-14 02:20:00,
2013-07-13 21:23:00,83.0,51.8,29.15,SE,143,0.0,8.1,34,0.00,,---,0.00,VWS V14.00,2013-07-14 02:23:00,
2013-07-13 21:26:00,82.8,52.4,29.15,SSE,149,3.1,8.1,35,0.00,,---,0.00,VWS V14.00,2013-07-14 02:26:00,
2013-07-13 21:29:00,82.8,52.4,29.15,SSE,147,7.2,8.1,35,0.00,,---,0.00,VWS V14.00,2013-07-14 02:29:00,
2013-07-13 21:30:00,82.8,52.4,29.15,SSE,159,5.4,8.1,35,0.00,,---,0.00,VWS V14.00,2013-07-14 02:30:00,
2013-07-13 21:35:00,82.5,52.8,29.15,SSE,168,8.3,8.7,36,0.00,,---,0.00,VWS V14.00,2013-07-14 02:35:00,
2013-07-13 21:38:00,82.3,53.4,29.15,SSE,165,8.1,8.7,37,0.00,,---,0.00,VWS V14.00,2013-07-14 02:38:00,
2013-07-13 21:44:00,82.1,53.3,29.15,SSE,158,5.4,8.7,37,0.00,,---,0.00,VWS V14.00,2013-07-14 02:44:00,
2013-07-13 21:45:00,82.1,54.0,29.15,SSE,154,4.0,8.7,38,0.00,,---,0.00,VWS V14.00,2013-07-14 02:45:00,
2013-07-13 21:47:00,81.9,53.8,29.15,SSE,152,3.6,7.2,38,0.00,,---,0.00,VWS V14.00,2013-07-14 02:47:00,
2013-07-13 21:50:00,81.9,53.8,29.15,South,173,4.0,8.3,38,0.00,,---,0.00,VWS V14.00,2013-07-14 02:50:00,
2013-07-13 21:53:00,81.7,53.7,29.15,South,172,5.4,8.7,38,0.00,,---,0.00,VWS V14.00,2013-07-14 02:53:00,
2013-07-13 21:57:00,81.7,53.7,29.15,SSE,158,4.0,8.7,38,0.00,,---,0.00,VWS V14.00,2013-07-14 02:57:00,
2013-07-13 22:00:00,81.6,54.2,29.15,SSE,166,3.1,8.7,39,0.00,,---,0.00,VWS V14.00,2013-07-14 03:00:00,
2013-07-13 22:06:00,81.2,53.9,29.15,SE,143,4.9,10.5,39,0.00,,---,0.00,VWS V14.00,2013-07-14 03:06:00,
2013-07-13 22:09:00,81.2,53.9,29.15,South,172,7.6,10.5,39,0.00,,---,0.00,VWS V14.00,2013-07-14 03:09:00,
2013-07-13 22:15:00,81.0,54.5,29.15,SSE,166,5.4,10.5,40,0.00,,---,0.00,VWS V14.00,2013-07-14 03:15:00,
2013-07-13 22:18:00,80.8,54.3,29.15,South,178,0.0,5.4,40,0.00,,---,0.00,VWS V14.00,2013-07-14 03:18:00,
2013-07-13 22:24:00,80.8,54.3,29.18,SSE,155,0.0,5.4,40,0.00,,---,0.00,VWS V14.00,2013-07-14 03:24:00,
2013-07-13 22:27:00,80.7,54.1,29.18,SSE,163,3.6,6.3,40,0.00,,---,0.00,VWS V14.00,2013-07-14 03:27:00,
2013-07-13 22:30:00,80.7,54.1,29.18,South,174,3.1,6.3,40,0.00,,---,0.00,VWS V14.00,2013-07-14 03:30:00,
2013-07-13 22:33:00,80.5,54.0,29.18,SSE,164,2.7,5.8,40,0.00,,---,0.00,VWS V14.00,2013-07-14 03:33:00,
2013-07-13 22:39:00,80.3,53.8,29.18,SSE,158,2.2,5.8,40,0.00,,---,0.00,VWS V14.00,2013-07-14 03:39:00,
2013-07-13 22:42:00,80.3,53.8,29.18,SSE,159,3.6,5.8,40,0.00,,---,0.00,VWS V14.00,2013-07-14 03:42:00,
2013-07-13 22:45:00,80.1,53.6,29.18,SSE,166,0.0,5.8,40,0.00,,---,0.00,VWS V14.00,2013-07-14 03:45:00,
2013-07-13 22:51:00,80.1,53.6,29.18,SSE,167,0.0,3.1,40,0.00,,---,0.00,VWS V14.00,2013-07-14 03:51:00,
2013-07-13 22:54:00,79.9,54.2,29.18,South,181,0.0,4.0,41,0.00,,---,0.00,VWS V14.00,2013-07-14 03:54:00,
2013-07-13 22:57:00,79.9,54.2,29.18,South,181,0.0,4.0,41,0.00,,---,0.00,VWS V14.00,2013-07-14 03:57:00,
2013-07-13 23:00:00,79.8,54.0,29.18,South,181,0.0,4.0,41,0.00,,---,0.00,VWS V14.00,2013-07-14 04:00:00,
2013-07-13 23:03:00,79.8,54.0,29.18,South,181,0.0,0.0,41,0.00,,---,0.00,VWS V14.00,2013-07-14 04:03:00,
2013-07-13 23:06:00,79.8,54.0,29.18,South,181,0.0,0.0,41,0.00,,---,0.00,VWS V14.00,2013-07-14 04:06:00,
2013-07-13 23:09:00,79.6,53.8,29.18,South,181,0.0,0.0,41,0.00,,---,0.00,VWS V14.00,2013-07-14 04:09:00,
2013-07-13 23:12:00,79.6,53.8,29.18,South,181,0.0,0.0,41,0.00,,---,0.00,VWS V14.00,2013-07-14 04:12:00,
2013-07-13 23:15:00,79.4,53.7,29.18,South,181,0.0,0.0,41,0.00,,---,0.00,VWS V14.00,2013-07-14 04:15:00,
2013-07-13 23:21:00,79.2,53.5,29.18,South,181,0.0,0.0,41,0.00,,---,0.00,VWS V14.00,2013-07-14 04:21:00,
2013-07-13 23:24:00,79.2,53.5,29.18,South,181,0.0,0.0,41,0.00,,---,0.00,VWS V14.00,2013-07-14 04:24:00,
2013-07-13 23:27:00,79.2,53.5,29.18,South,181,0.0,0.0,41,0.00,,---,0.00,VWS V14.00,2013-07-14 04:27:00,
2013-07-13 23:30:00,79.0,53.3,29.18,South,181,0.0,0.0,41,0.00,,---,0.00,VWS V14.00,2013-07-14 04:30:00,
2013-07-13 23:36:00,79.0,53.3,29.18,South,181,0.0,0.0,41,0.00,,---,0.00,VWS V14.00,2013-07-14 04:36:00,
2013-07-13 23:42:00,78.7,53.0,29.18,ESE,104,0.0,0.0,41,0.00,,---,0.00,VWS V14.00,2013-07-14 04:42:00,
2013-07-13 23:45:00,78.5,52.9,29.18,ESE,104,0.0,0.0,41,0.00,,---,0.00,VWS V14.00,2013-07-14 04:45:00,
2013-07-13 23:48:00,78.5,52.9,29.18,ESE,104,0.0,0.0,41,0.00,,---,0.00,VWS V14.00,2013-07-14 04:48:00,
2013-07-13 23:51:00,78.3,52.7,29.18,ESE,104,0.0,0.0,41,0.00,,---,0.00,VWS V14.00,2013-07-14 04:51:00,
2013-07-13 23:54:00,78.1,52.5,29.18,ESE,104,0.0,0.0,41,0.00,,---,0.00,VWS V14.00,2013-07-14 04:54:00,
2013-07-13 23:57:00,78.1,53.2,29.18,ESE,104,0.0,0.0,42,0.00,,---,0.00,VWS V14.00,2013-07-14 04:57:00,